contact:dominique.lefevre@mio.osupytheas.fr, maurice.libes@osupytheas.fr, didier.mallarino@osupytheas.fr
Project:EMSO http://www.emso-fr.org/EMSO-France
Depth: 2436.0 m
Title:EMSO Ligure Ouest : Data MII capteur CSTAR
DateTime,Latitude,Longitude,Instrument_Serial,Reference_Counts,Signal_Counts,Corrected_Signal_raw_counts,Calculated_Beam_c_inverse_meters,Internal_thermistor_counts
DateTime,Latitude,Longitude,Instrument_Serial,Reference_Counts,Signal_Counts,Corrected_Signal_raw_counts,Calculated_Beam_c_inverse_meters,Internal_thermistor_counts
2024-05-03T13:55:06,42.805,6.029,CST-1368DR,4104,4255,10986,01.407,553
2024-05-03T13:58:08,42.805,6.029,CST-1368DR,4104,4259,10997,01.403,553
2024-05-03T14:01:11,42.805,6.029,CST-1368DR,4105,4258,10992,01.405,553
2024-05-03T14:04:12,42.805,6.029,CST-1368DR,4104,4254,10985,01.407,553
2024-05-03T14:07:14,42.805,6.029,CST-1368DR,4105,4257,10990,01.405,553
2024-05-03T14:10:15,42.805,6.029,CST-1368DR,4104,4258,10994,01.404,553
2024-05-03T14:13:17,42.805,6.029,CST-1368DR,4104,4257,10991,01.405,553
2024-05-03T14:16:18,42.805,6.029,CST-1368DR,4104,4259,10997,01.403,553
2024-05-03T14:19:20,42.805,6.029,CST-1368DR,4104,4254,10984,01.407,553
2024-05-03T14:22:22,42.805,6.029,CST-1368DR,4104,4257,10993,01.404,553
2024-05-03T14:25:23,42.805,6.029,CST-1368DR,4104,4256,10989,01.406,553
2024-05-03T14:28:25,42.805,6.029,CST-1368DR,4104,4257,10991,01.405,553
2024-05-03T14:31:26,42.805,6.029,CST-1368DR,4104,4257,10991,01.405,553
2024-05-03T14:34:28,42.805,6.029,CST-1368DR,4104,4256,10989,01.406,553
2024-05-03T14:37:29,42.805,6.029,CST-1368DR,4104,4258,10995,01.403,553
2024-05-03T14:40:31,42.805,6.029,CST-1368DR,4104,4258,10993,01.404,553
2024-05-03T14:43:33,42.805,6.029,CST-1368DR,4103,4256,10993,01.404,553
2024-05-03T14:46:34,42.805,6.029,CST-1368DR,4103,4255,10988,01.406,553
2024-05-03T14:49:36,42.805,6.029,CST-1368DR,4103,4257,10993,01.404,553
2024-05-03T14:52:37,42.805,6.029,CST-1368DR,4103,4256,10992,01.405,553
2024-05-03T14:55:39,42.805,6.029,CST-1368DR,4103,4256,10991,01.405,553
2024-05-03T14:58:41,42.805,6.029,CST-1368DR,4103,4256,10991,01.405,553
2024-05-03T15:01:42,42.805,6.029,CST-1368DR,4103,4256,10991,01.405,553
2024-05-03T15:04:44,42.805,6.029,CST-1368DR,4103,4255,10989,01.406,553
2024-05-03T15:07:45,42.805,6.029,CST-1368DR,4102,4251,10982,01.408,553
2024-05-03T15:10:47,42.805,6.029,CST-1368DR,4102,4254,10989,01.406,553
2024-05-03T15:13:48,42.805,6.029,CST-1368DR,4102,4254,10990,01.405,553
2024-05-03T15:16:50,42.805,6.029,CST-1368DR,4102,4254,10989,01.406,553
2024-05-03T15:19:52,42.805,6.029,CST-1368DR,4102,4254,10988,01.406,553
2024-05-03T15:22:53,42.805,6.029,CST-1368DR,4102,4251,10982,01.408,553
2024-05-03T15:25:55,42.805,6.029,CST-1368DR,4102,4253,10987,01.406,553
2024-05-03T15:28:56,42.805,6.029,CST-1368DR,4102,4254,10989,01.406,553
2024-05-03T15:31:58,42.805,6.029,CST-1368DR,4102,4252,10983,01.408,553
2024-05-03T15:34:59,42.805,6.029,CST-1368DR,4102,4252,10985,01.407,553
2024-05-03T15:38:01,42.805,6.029,CST-1368DR,4101,4253,10989,01.406,553
2024-05-03T15:41:03,42.805,6.029,CST-1368DR,4101,4253,10990,01.405,553
2024-05-03T15:44:04,42.805,6.029,CST-1368DR,4101,4255,10994,01.404,553
2024-05-03T15:47:06,42.805,6.029,CST-1368DR,4101,4255,10993,01.404,553
2024-05-03T15:50:07,42.805,6.029,CST-1368DR,4101,4250,10981,01.409,553
2024-05-03T15:53:09,42.805,6.029,CST-1368DR,4101,4252,10987,01.406,553
2024-05-03T15:56:11,42.805,6.029,CST-1368DR,4101,4252,10987,01.406,553
2024-05-03T15:59:12,42.805,6.029,CST-1368DR,4101,4251,10984,01.407,553
2024-05-03T16:02:14,42.805,6.029,CST-1368DR,4101,4253,10988,01.406,553
2024-05-03T16:05:15,42.805,6.029,CST-1368DR,4101,4255,10995,01.403,553
2024-05-03T16:08:17,42.805,6.029,CST-1368DR,4101,4248,10975,01.411,553
2024-05-03T16:11:18,42.805,6.029,CST-1368DR,4101,4252,10987,01.406,553
2024-05-03T16:14:20,42.805,6.029,CST-1368DR,4101,4253,10988,01.406,553
2024-05-03T16:17:22,42.805,6.029,CST-1368DR,4100,4247,10977,01.410,553
2024-05-03T16:20:23,42.805,6.029,CST-1368DR,4100,4246,10973,01.411,553
2024-05-03T16:23:25,42.805,6.029,CST-1368DR,4100,4247,10976,01.410,553
2024-05-03T16:26:26,42.805,6.029,CST-1368DR,4100,4246,10973,01.411,553
2024-05-03T16:29:28,42.805,6.029,CST-1368DR,4100,4245,10971,01.412,553
2024-05-03T16:32:29,42.805,6.029,CST-1368DR,4100,4246,10975,01.411,553
2024-05-03T16:35:31,42.805,6.029,CST-1368DR,4100,4245,10970,01.413,553
2024-05-03T16:38:33,42.805,6.029,CST-1368DR,4100,4244,10969,01.413,553
2024-05-03T16:41:34,42.805,6.029,CST-1368DR,4100,4247,10976,01.410,553
2024-05-03T16:44:36,42.805,6.029,CST-1368DR,4100,4246,10973,01.411,553
2024-05-03T16:47:37,42.805,6.029,CST-1368DR,4100,4246,10973,01.411,553
2024-05-03T16:50:39,42.805,6.029,CST-1368DR,4100,4244,10969,01.413,553
2024-05-03T16:53:40,42.805,6.029,CST-1368DR,4100,4244,10967,01.414,553
2024-05-03T16:56:42,42.805,6.029,CST-1368DR,4099,4246,10975,01.411,553
2024-05-03T16:59:44,42.805,6.029,CST-1368DR,4099,4246,10976,01.410,553
2024-05-03T17:02:45,42.805,6.029,CST-1368DR,4099,4243,10967,01.414,553
2024-05-03T17:05:47,42.805,6.029,CST-1368DR,4099,4243,10967,01.414,553
2024-05-03T17:08:48,42.805,6.029,CST-1368DR,4099,4243,10969,01.413,553
2024-05-03T17:11:50,42.805,6.029,CST-1368DR,4099,4243,10967,01.414,553
2024-05-03T17:14:52,42.805,6.029,CST-1368DR,4099,4243,10969,01.413,553
2024-05-03T17:17:53,42.805,6.029,CST-1368DR,4099,4241,10962,01.415,553
2024-05-03T17:20:55,42.805,6.029,CST-1368DR,4099,4241,10964,01.415,553
2024-05-03T17:23:56,42.805,6.029,CST-1368DR,4099,4238,10954,01.418,553
2024-05-03T17:26:58,42.805,6.029,CST-1368DR,4099,4242,10966,01.414,553
2024-05-03T17:29:59,42.805,6.029,CST-1368DR,4099,4239,10958,01.417,553
2024-05-03T17:33:01,42.805,6.029,CST-1368DR,4099,4242,10967,01.414,553
2024-05-03T17:36:03,42.805,6.029,CST-1368DR,4099,4240,10960,01.416,553
2024-05-03T17:39:04,42.805,6.029,CST-1368DR,4099,4239,10959,01.417,553
2024-05-03T17:42:06,42.805,6.029,CST-1368DR,4099,4242,10965,01.414,553
2024-05-03T17:45:07,42.805,6.029,CST-1368DR,4098,4239,10960,01.416,553
2024-05-03T17:48:09,42.805,6.029,CST-1368DR,4098,4240,10962,01.415,553
2024-05-03T17:51:10,42.805,6.029,CST-1368DR,4098,4241,10965,01.414,553
2024-05-03T17:54:12,42.805,6.029,CST-1368DR,4098,4238,10957,01.417,553
2024-05-03T17:57:14,42.805,6.029,CST-1368DR,4098,4239,10961,01.416,553
2024-05-03T18:00:16,42.805,6.029,CST-1368DR,4098,4240,10964,01.415,553
2024-05-03T18:03:17,42.805,6.029,CST-1368DR,4098,4239,10960,01.416,553
2024-05-03T18:06:19,42.805,6.029,CST-1368DR,4098,4238,10958,01.417,553
2024-05-03T18:09:20,42.805,6.029,CST-1368DR,4098,4239,10962,01.415,553
2024-05-03T18:12:22,42.805,6.029,CST-1368DR,4098,4237,10956,01.418,553
2024-05-03T18:15:24,42.805,6.029,CST-1368DR,4098,4239,10961,01.416,553
2024-05-03T18:18:25,42.805,6.029,CST-1368DR,4098,4238,10958,01.417,553
2024-05-03T18:21:27,42.805,6.029,CST-1368DR,4098,4235,10951,01.419,553
2024-05-03T18:24:28,42.805,6.029,CST-1368DR,4098,4237,10956,01.418,553
2024-05-03T18:27:30,42.805,6.029,CST-1368DR,4098,4237,10954,01.418,553
2024-05-03T18:30:31,42.805,6.029,CST-1368DR,4098,4237,10956,01.418,553
2024-05-03T18:33:33,42.805,6.029,CST-1368DR,4098,4237,10956,01.418,553
2024-05-03T18:36:35,42.805,6.029,CST-1368DR,4098,4234,10949,01.420,553
2024-05-03T18:39:36,42.805,6.029,CST-1368DR,4098,4236,10952,01.419,553
2024-05-03T18:42:38,42.805,6.029,CST-1368DR,4098,4236,10952,01.419,553
2024-05-03T18:45:39,42.805,6.029,CST-1368DR,4097,4236,10955,01.418,553
2024-05-03T18:48:41,42.805,6.029,CST-1368DR,4097,4236,10956,01.418,553
2024-05-03T18:51:42,42.805,6.029,CST-1368DR,4097,4236,10956,01.418,553
2024-05-03T18:54:44,42.805,6.029,CST-1368DR,4097,4236,10956,01.418,553
2024-05-03T18:57:46,42.805,6.029,CST-1368DR,4097,4237,10958,01.417,553
2024-05-03T19:00:47,42.805,6.029,CST-1368DR,4097,4236,10954,01.418,553
2024-05-03T19:03:49,42.805,6.029,CST-1368DR,4097,4239,10963,01.415,553
2024-05-03T19:06:50,42.805,6.029,CST-1368DR,4097,4235,10952,01.419,553
2024-05-03T19:09:52,42.805,6.029,CST-1368DR,4097,4238,10961,01.416,553
2024-05-03T19:12:54,42.805,6.029,CST-1368DR,4097,4235,10952,01.419,553
2024-05-03T19:15:56,42.805,6.029,CST-1368DR,4097,4236,10956,01.418,553
2024-05-03T19:18:58,42.805,6.029,CST-1368DR,4097,4236,10955,01.418,553
2024-05-03T19:21:59,42.805,6.029,CST-1368DR,4097,4234,10950,01.420,553
2024-05-03T19:25:01,42.805,6.029,CST-1368DR,4097,4233,10949,01.420,553
2024-05-03T19:28:03,42.805,6.029,CST-1368DR,4097,4233,10948,01.421,553
2024-05-03T19:31:04,42.805,6.029,CST-1368DR,4097,4235,10954,01.418,553
2024-05-03T19:34:06,42.805,6.029,CST-1368DR,4097,4240,10966,01.414,553
2024-05-03T19:37:07,42.805,6.029,CST-1368DR,4097,4231,10942,01.423,553
2024-05-03T19:40:09,42.805,6.029,CST-1368DR,4097,4237,10958,01.417,553
2024-05-03T19:43:10,42.805,6.029,CST-1368DR,4097,4238,10960,01.416,553
2024-05-03T19:46:12,42.805,6.029,CST-1368DR,4097,4237,10958,01.417,553
2024-05-03T19:49:14,42.805,6.029,CST-1368DR,4097,4236,10954,01.418,553
2024-05-03T19:52:15,42.805,6.029,CST-1368DR,4097,4234,10951,01.419,553
2024-05-03T19:55:17,42.805,6.029,CST-1368DR,4096,4233,10949,01.420,553
2024-05-03T19:58:18,42.805,6.029,CST-1368DR,4096,4234,10954,01.418,553
2024-05-03T20:01:19,42.805,6.029,CST-1368DR,4096,4232,10948,01.421,553
2024-05-03T20:04:21,42.805,6.029,CST-1368DR,4096,4236,10959,01.417,553
2024-05-03T20:07:23,42.805,6.029,CST-1368DR,4096,4235,10956,01.418,553
2024-05-03T20:10:24,42.805,6.029,CST-1368DR,4096,4236,10958,01.417,553
2024-05-03T20:13:26,42.805,6.029,CST-1368DR,4096,4237,10962,01.415,553
2024-05-03T20:16:27,42.805,6.029,CST-1368DR,4096,4241,10972,01.412,553
2024-05-03T20:19:29,42.805,6.029,CST-1368DR,4096,4237,10962,01.415,553
2024-05-03T20:22:30,42.805,6.029,CST-1368DR,4096,4237,10961,01.416,553
2024-05-03T20:25:32,42.805,6.029,CST-1368DR,4096,4236,10958,01.417,553
2024-05-03T20:28:34,42.805,6.029,CST-1368DR,4096,4233,10951,01.419,553
2024-05-03T20:31:35,42.805,6.029,CST-1368DR,4096,4236,10958,01.417,553
2024-05-03T20:34:37,42.805,6.029,CST-1368DR,4096,4231,10945,01.422,553
2024-05-03T20:37:38,42.805,6.029,CST-1368DR,4096,4230,10941,01.423,553
2024-05-03T20:40:40,42.805,6.029,CST-1368DR,4096,4229,10940,01.423,553
2024-05-03T20:43:41,42.805,6.029,CST-1368DR,4096,4231,10946,01.421,553
2024-05-03T20:46:43,42.805,6.029,CST-1368DR,4096,4231,10946,01.421,553
2024-05-03T20:49:45,42.805,6.029,CST-1368DR,4096,4233,10950,01.420,553
2024-05-03T20:52:46,42.805,6.029,CST-1368DR,4096,4233,10951,01.419,553
2024-05-03T20:55:48,42.805,6.029,CST-1368DR,4096,4231,10945,01.422,553
2024-05-03T20:58:49,42.805,6.029,CST-1368DR,4096,4232,10947,01.421,553
2024-05-03T21:01:51,42.805,6.029,CST-1368DR,4096,4228,10938,01.424,553
2024-05-03T21:04:53,42.805,6.029,CST-1368DR,4096,4232,10947,01.421,553
2024-05-03T21:07:54,42.805,6.029,CST-1368DR,4096,4230,10942,01.423,553
2024-05-03T21:10:56,42.805,6.029,CST-1368DR,4096,4233,10951,01.419,553
2024-05-03T21:13:57,42.805,6.029,CST-1368DR,4096,4235,10954,01.418,553
2024-05-03T21:16:59,42.805,6.029,CST-1368DR,4095,4233,10952,01.419,553
2024-05-03T21:20:00,42.805,6.029,CST-1368DR,4095,4233,10952,01.419,553
2024-05-03T21:23:02,42.805,6.029,CST-1368DR,4095,4232,10951,01.419,553
2024-05-03T21:26:04,42.805,6.029,CST-1368DR,4095,4228,10940,01.423,553
2024-05-03T21:29:05,42.805,6.029,CST-1368DR,4095,4234,10956,01.418,553
2024-05-03T21:32:07,42.805,6.029,CST-1368DR,4095,4232,10951,01.419,553
2024-05-03T21:35:08,42.805,6.029,CST-1368DR,4095,4233,10952,01.419,553
2024-05-03T21:38:10,42.805,6.029,CST-1368DR,4095,4231,10947,01.421,553
2024-05-03T21:41:11,42.805,6.029,CST-1368DR,4095,4230,10945,01.422,553
2024-05-03T21:44:13,42.805,6.029,CST-1368DR,4095,4230,10946,01.421,553
2024-05-03T21:47:15,42.805,6.029,CST-1368DR,4095,4231,10949,01.420,553
2024-05-03T21:50:16,42.805,6.029,CST-1368DR,4095,4232,10950,01.420,553
2024-05-03T21:53:18,42.805,6.029,CST-1368DR,4095,4233,10952,01.419,553
2024-05-03T21:56:19,42.805,6.029,CST-1368DR,4095,4231,10948,01.421,553
2024-05-03T21:59:21,42.805,6.029,CST-1368DR,4095,4234,10956,01.418,553
2024-05-03T22:02:25,42.805,6.029,CST-1368DR,4095,4235,10958,01.417,553
2024-05-03T22:05:27,42.805,6.029,CST-1368DR,4095,4231,10947,01.421,553
2024-05-03T22:08:28,42.805,6.029,CST-1368DR,4095,4230,10945,01.422,553
2024-05-03T22:11:30,42.805,6.029,CST-1368DR,4095,4232,10950,01.420,553
2024-05-03T22:14:31,42.805,6.029,CST-1368DR,4095,4231,10949,01.420,553
2024-05-03T22:17:33,42.805,6.029,CST-1368DR,4095,4232,10951,01.419,553
2024-05-03T22:20:35,42.805,6.029,CST-1368DR,4095,4233,10952,01.419,553
2024-05-03T22:23:36,42.805,6.029,CST-1368DR,4095,4233,10954,01.418,553
2024-05-03T22:26:38,42.805,6.029,CST-1368DR,4095,4228,10939,01.424,553
2024-05-03T22:29:39,42.805,6.029,CST-1368DR,4095,4231,10947,01.421,553
2024-05-03T22:32:41,42.805,6.029,CST-1368DR,4095,4230,10946,01.421,553
2024-05-03T22:35:42,42.805,6.029,CST-1368DR,4095,4227,10938,01.424,553
2024-05-03T22:38:44,42.805,6.029,CST-1368DR,4095,4226,10935,01.425,553
2024-05-03T22:41:46,42.805,6.029,CST-1368DR,4095,4228,10940,01.423,553
2024-05-03T22:44:47,42.805,6.029,CST-1368DR,4095,4226,10936,01.425,553
2024-05-03T22:47:49,42.805,6.029,CST-1368DR,4094,4226,10936,01.425,553
2024-05-03T22:50:50,42.805,6.029,CST-1368DR,4094,4226,10936,01.425,553
2024-05-03T22:53:52,42.805,6.029,CST-1368DR,4094,4227,10939,01.424,553
2024-05-03T22:56:53,42.805,6.029,CST-1368DR,4094,4223,10930,01.427,553
2024-05-03T22:59:55,42.805,6.029,CST-1368DR,4094,4223,10928,01.428,553
2024-05-03T23:02:57,42.805,6.029,CST-1368DR,4094,4228,10943,01.422,553
2024-05-03T23:05:58,42.805,6.029,CST-1368DR,4094,4226,10936,01.425,553
2024-05-03T23:09:00,42.805,6.029,CST-1368DR,4094,4225,10934,01.426,553
2024-05-03T23:12:01,42.805,6.029,CST-1368DR,4094,4228,10942,01.423,553
2024-05-03T23:15:03,42.805,6.029,CST-1368DR,4094,4224,10933,01.426,553
2024-05-03T23:18:04,42.805,6.029,CST-1368DR,4094,4229,10944,01.422,553
2024-05-03T23:21:06,42.805,6.029,CST-1368DR,4094,4223,10930,01.427,553
2024-05-03T23:24:08,42.805,6.029,CST-1368DR,4094,4229,10946,01.421,553
2024-05-03T23:27:09,42.805,6.029,CST-1368DR,4094,4227,10940,01.423,553
2024-05-03T23:30:11,42.805,6.029,CST-1368DR,4094,4227,10939,01.424,553
2024-05-03T23:33:12,42.805,6.029,CST-1368DR,4094,4227,10939,01.424,553
2024-05-03T23:36:14,42.805,6.029,CST-1368DR,4094,4227,10940,01.423,553
2024-05-03T23:39:16,42.805,6.029,CST-1368DR,4094,4226,10937,01.425,553
2024-05-03T23:42:17,42.805,6.029,CST-1368DR,4094,4220,10923,01.430,553
2024-05-03T23:45:19,42.805,6.029,CST-1368DR,4094,4223,10928,01.428,553
2024-05-03T23:48:20,42.805,6.029,CST-1368DR,4094,4223,10928,01.428,553
2024-05-03T23:51:22,42.805,6.029,CST-1368DR,4094,4223,10929,01.428,553
2024-05-03T23:54:23,42.805,6.029,CST-1368DR,4094,4226,10936,01.425,553
2024-05-03T23:57:25,42.805,6.029,CST-1368DR,4094,4226,10938,01.424,553
